Weather History for Guriat, Saudi Arabia

Change the Weather History Date:

Thursday, March 7, 2013

  Actual Average Record
Temperature  
Mean Temperature 48 °F -  
Max Temperature 61 °F 71 °F 87 °F (2009)
Min Temperature 34 °F 46 °F 34 °F (2013)
Degree Days  
Heating Degree Days 18    
Moisture  
Dew Point 15 °F    
Average Humidity 26    
Maximum Humidity 65    
Minimum Humidity 5    
Precipitation  
Precipitation 0.00 in - - ()
Sea Level Pressure  
Sea Level Pressure 30.20 in    
Wind  
Wind Speed 4 mph ()    
Max Wind Speed 9 mph    
Max Gust Speed -    
Visibility 6.0 miles    
Events      
Averages and records for this station are not official NWS values.
T = Trace of Precipitation, MM = Missing Value Source: Averaged Metar Reports

Daily Weather History Graph

Daily Weather History Graph

Search for Another Location

Airport:

Trip Planner

Search our weather history database for the weather conditions in past years. The results will help you decide how hot, cold, wet, or windy it might be!

Date:

Astronomy

Mar. 07, 2013 Rise Set
Actual Time 6:50 AM AST 6:33 PM AST
Civil Twilight 6:26 AM AST 6:57 PM AST
Nautical Twilight 5:58 AM AST 7:25 PM AST
Astronomical Twilight 5:30 AM AST 7:53 PM AST
Moon 3:19 AM AST (3/7) 2:11 PM AST (3/7)
Length of Visible Light 12h 31m
Length of Day
11h 42m
Waning Crescent, 23% of the Moon is Illuminated
Mar 7
Waning Crescent
Mar 11
New
Mar 19
First Quarter
Mar 27
Full
Apr 3
Last Quarter

Hourly Weather History & Observations

Time (AST) Temp. Windchill Dew Point Humidity Pressure Visibility Wind Dir Wind Speed Gust Speed Precip Events Conditions
12:00 AM 50 °F - 27 °F 27% 30.17 in 6 mi NNE 2.3 mph - -  
12:00 AM 50.0 °F - 26.6 °F 40% 30.15 in - NNE 2.3 mph - N/A   Clear
1:00 AM 48.2 °F - 24.8 °F 40% 30.15 in - NE 4.6 mph - N/A   Clear
2:00 AM 48.2 °F - 24.8 °F 40% 30.18 in - Calm Calm - N/A   Clear
3:00 AM 44 °F - 21 °F 27% 30.22 in 6 mi NE 4.6 mph - -  
3:00 AM 42.8 °F 40.1 °F 21.2 °F 42% 30.21 in - NE 4.6 mph - N/A   Clear
4:00 AM 41.0 °F 38.0 °F 19.4 °F 42% 30.21 in - NE 4.6 mph - N/A   Clear
5:00 AM 39.2 °F - 17.6 °F 42% 30.21 in - WNW 2.3 mph - N/A   Clear
6:00 AM 38 °F - 18 °F 30% 30.23 in 6 mi West 2.3 mph - -  
6:00 AM 37.4 °F - 17.6 °F 45% 30.21 in - West 2.3 mph - N/A   Clear
7:00 AM 33.8 °F 29.6 °F 23.0 °F 65% 30.21 in - West 4.6 mph - N/A   Clear
8:00 AM 37.4 °F 33.8 °F 24.8 °F 60% 30.24 in - West 4.6 mph - N/A   Clear
9:00 AM 43 °F - 19 °F 26% 30.30 in 6 mi Calm Calm - -   Clear
9:00 AM 42.8 °F - 19.4 °F 39% 30.27 in - Calm Calm - N/A   Clear
10:00 AM 48.2 °F - 19.4 °F 32% 30.27 in - Calm Calm - N/A   Clear
11:00 AM 50.0 °F - 10.4 °F 20% 30.27 in - East 6.9 mph - N/A   Clear
12:00 PM 54 °F - 10 °F 8% 30.28 in 6 mi ESE 6.9 mph - -   Clear
12:00 PM 53.6 °F - 10.4 °F 18% 30.27 in - ESE 6.9 mph - N/A   Clear
1:00 PM 55.4 °F - 8.6 °F 15% 30.24 in - East 9.2 mph - N/A   Clear
2:00 PM 57.2 °F - 8.6 °F 14% 30.21 in - East 6.9 mph - N/A   Clear
3:00 PM 60 °F - 9 °F 5% 30.16 in 6 mi ENE 6.9 mph - -   Clear
3:00 PM 59.0 °F - 8.6 °F 14% 30.21 in - ENE 6.9 mph - N/A   Clear
4:00 PM 60.8 °F - 5.0 °F 11% 30.12 in - East 6.9 mph - N/A   Clear
5:00 PM 60.8 °F - 6.8 °F 12% 30.12 in - East 9.2 mph - N/A   Clear
6:00 PM 59 °F - 9 °F 6% 30.15 in 6 mi ESE 4.6 mph - -   Clear
6:00 PM 59.0 °F - 8.6 °F 14% 30.12 in - ESE 4.6 mph - N/A   Clear
7:00 PM 57.2 °F - 8.6 °F 14% 30.09 in - East 6.9 mph - N/A   Clear
8:00 PM 55.4 °F - 10.4 °F 17% 30.09 in - ESE 6.9 mph - N/A   Clear
9:00 PM 52 °F - 7 °F 7% 30.19 in 6 mi ENE 9.2 mph - -  
9:00 PM 51.8 °F - 6.8 °F 16% 30.15 in - ENE 9.2 mph - N/A   Clear
10:00 PM 50.0 °F - 6.8 °F 17% 30.18 in - East 6.9 mph - N/A   Clear
11:00 PM 48.2 °F - 6.8 °F 19% 30.18 in - East 6.9 mph - N/A   Clear